Theta_e
308 308 309 307 305 306 305 307 309 310 310 310 315 314 314 313 312 311 311 310 321 334 340 343 343 343 343 343 344 343 342 341 343 344 342 342 340 339 337 336 337 337 338 334
308 311 310 309 306 307 307 307 307 309 309 310 311 314 314 314 314 312 311 308 313 325 342 343 342 341 342 343 343 342 341 340 342 341 339 340 339 338 339 340 341 341 341 341
312 311 309 310 310 309 308 308 308 308 309 310 311 313 315 315 314 313 310 309 309 318 344 344 341 341 341 341 341 341 340 340 341 342 340 344 342 346 347 348 347 346 345 345
314 314 315 314 314 311 311 309 309 308 309 312 312 317 315 316 315 314 311 309 308 323 346 345 343 341 340 341 341 340 340 340 341 343 343 345 347 345 342 342 343 342 340 333
315 314 314 316 316 314 312 308 309 309 309 316 316 318 315 314 316 314 312 310 308 319 346 346 344 342 341 341 341 340 342 343 344 346 348 348 344 343 342 342 341 338 337 331
315 314 315 314 312 313 311 310 309 310 313 316 315 318 316 315 317 316 314 310 308 312 341 345 344 343 341 340 340 341 341 343 345 349 347 345 340 338 338 339 333 332 333 335
314 314 314 314 315 312 310 310 314 316 313 315 313 318 318 315 316 317 315 311 308 310 337 340 342 341 340 340 341 341 342 341 343 345 344 342 339 337 337 337 334 332 332 325
316 315 315 316 316 314 311 311 307 308 310 311 313 322 318 316 317 314 312 310 308 314 333 339 340 341 339 337 340 341 342 341 342 342 338 337 337 337 336 333 333 332 331 325
319 318 315 317 315 314 314 313 309 314 316 318 320 320 319 316 313 312 311 310 309 325 338 339 339 339 338 338 339 339 339 339 339 340 337 337 338 335 332 331 332 327 324 319
314 316 315 316 314 313 314 311 313 313 313 317 324 320 320 317 312 313 311 311 308 335 342 343 339 338 337 335 333 334 334 335 337 338 338 338 333 334 331 331 326 320 318 317
312 312 314 314 316 315 317 315 314 315 321 327 325 323 328 329 320 313 313 313 329 342 343 338 336 332 329 328 329 328 329 331 332 336 333 333 332 331 328 323 319 318 316 316
313 316 318 313 315 313 314 312 314 310 323 327 323 321 331 330 327 313 323 335 341 341 337 335 331 328 326 324 322 322 323 324 324 326 326 324 325 323 320 317 316 315 315 314
314 317 312 310 315 314 315 315 316 316 317 328 327 327 334 326 326 332 341 342 341 337 334 331 328 326 323 321 319 318 317 317 317 320 321 319 318 316 316 315 316 315 314 313
314 317 317 312 312 313 316 318 318 318 320 325 329 338 335 336 337 341 341 339 335 333 330 327 325 323 321 319 316 314 314 314 315 316 316 316 316 315 315 314 314 313 311 309
316 318 315 317 317 318 318 319 319 320 319 327 330 337 338 336 337 340 337 333 331 329 327 324 322 319 317 315 313 313 313 313 314 314 314 314 315 315 314 313 312 310 309 308
313 320 317 319 320 319 319 319 319 321 322 326 325 336 337 336 336 335 333 331 328 326 323 321 319 317 315 313 312 311 311 312 313 313 313 314 314 314 313 311 309 309 308 307
314 317 320 321 320 320 322 322 323 322 323 322 329 334 331 331 331 330 328 326 325 323 322 320 317 315 314 312 311 310 312 313 313 312 312 313 312 312 311 310 310 309 307 306
316 318 318 321 319 320 320 314 318 324 326 327 324 322 320 319 318 319 320 321 320 318 316 314 312 310 310 309 310 311 312 312 312 312 312 312 311 311 311 311 310 308 307 305
309 316 319 318 319 325 320 314 314 317 321 320 319 318 317 316 315 314 314 314 315 314 312 311 310 309 308 308 309 310 309 310 310 309 310 310 311 312 311 310 308 306 306 303
307 308 313 317 318 321 315 309 308 310 320 316 319 319 319 322 317 314 312 311 310 309 309 308 307 306 306 306 308 308 307 307 307 308 308 308 309 309 310 310 308 306 304 302
304 300 310 316 318 319 308 305 308 323 321 319 321 320 320 316 314 310 309 308 306 306 304 304 304 304 304 306 307 305 305 305 306 307 307 307 307 307 309 310 308 306 303 301
304 301 301 307 316 318 304 306 322 314 312 318 314 311 310 308 308 307 306 304 303 302 301 301 301 301 303 305 305 303 303 304 305 305 305 305 305 305 306 308 306 305 303 301
302 302 302 306 307 303 301 305 307 305 310 312 311 309 307 305 305 303 303 301 300 299 299 299 299 299 301 302 303 302 301 303 303 303 302 302 302 303 304 303 302 300 299 298
300 299 302 304 304 301 303 307 310 310 310 310 310 309 307 305 303 302 301 300 299 298 298 298 298 297 297 300 300 300 301 302 302 300 299 299 300 299 299 298 298 297 296 295
300 299 298 303 301 301 303 304 306 307 307 306 305 305 305 305 303 301 300 299 298 297 297 297 296 295 295 297 298 299 299 300 299 299 299 298 298 298 297 296 295 295 293 293
300 299 300 301 299 299 299 303 303 304 304 303 303 303 302 302 301 300 299 297 296 295 295 295 294 294 294 295 295 296 297 299 299 298 298 297 297 297 297 296 296 294 292 293
Wind_Speed
3 4 11 13 10 10 8 12 11 4 8 5 11 7 9 18 9 9 9 7 9 12 9 19 28 31 31 32 37 39 38 36 34 32 30 26 26 24 20 19 18 18 18 18
1 12 17 11 8 12 13 12 17 6 9 12 16 13 8 14 17 8 10 8 11 7 9 12 22 28 33 39 37 36 38 37 36 34 29 20 23 19 16 16 16 14 14 13
14 13 9 12 13 12 14 14 11 9 8 14 12 18 14 15 16 7 8 7 9 16 15 14 15 23 26 29 36 40 40 39 37 32 26 13 16 8 9 5 8 13 10 12
9 4 13 19 19 16 18 10 11 10 9 8 8 6 8 17 15 12 10 9 10 10 14 17 16 17 26 35 38 36 39 37 35 31 26 19 15 12 14 19 20 26 22 19
8 5 7 15 22 21 11 10 11 13 14 3 8 4 7 11 14 10 11 11 10 14 17 16 17 25 30 29 35 34 28 25 26 22 21 21 21 22 21 22 25 22 17 15
20 15 12 15 8 15 10 5 9 13 7 10 12 12 4 9 20 17 8 10 11 12 11 14 19 19 18 20 25 25 24 18 21 21 18 22 26 23 24 26 26 19 11 16
10 10 5 10 9 9 15 9 4 6 5 6 15 9 13 9 13 20 16 12 11 14 13 10 11 10 17 21 24 22 23 20 19 20 16 17 19 19 17 15 16 18 11 11
5 6 6 10 8 7 20 13 5 7 6 7 12 9 7 25 14 9 11 11 12 10 14 15 13 11 14 21 24 23 23 22 22 20 19 20 18 15 18 11 11 15 18 15
4 5 1 11 7 9 12 13 4 2 4 4 5 8 3 10 6 10 14 13 15 15 15 14 10 13 17 20 22 28 28 25 22 24 28 22 21 21 19 18 17 21 20 18
3 6 9 2 6 11 3 9 2 1 2 4 8 13 6 11 9 15 12 15 10 14 15 14 12 16 18 22 28 28 28 27 26 25 24 26 25 22 21 21 25 22 21 19
6 5 4 5 6 7 4 6 2 3 3 3 4 5 3 3 6 19 17 11 16 18 18 16 15 19 22 26 29 30 30 29 26 27 28 26 23 20 26 29 27 22 20 18
4 4 3 5 5 4 6 6 5 4 3 4 3 4 2 7 7 7 12 14 17 20 21 18 17 21 24 25 26 28 29 31 30 31 29 29 29 30 30 29 25 22 22 19
2 3 2 6 2 2 5 8 4 3 2 3 3 3 4 6 7 11 20 19 19 21 21 17 16 15 23 27 27 29 29 30 31 36 38 36 35 32 29 26 24 21 20 16
13 4 3 4 4 3 5 11 6 2 3 6 8 5 7 11 17 17 19 21 20 20 20 18 16 16 25 28 28 30 29 31 32 37 38 37 34 31 29 28 26 22 18 15
5 2 3 9 11 5 7 15 11 6 5 6 10 2 8 13 18 19 20 20 22 20 19 18 18 17 24 28 28 29 29 30 33 36 35 36 35 33 31 29 25 21 18 16
4 3 4 4 2 6 6 11 8 9 13 12 12 4 10 13 16 17 18 21 21 20 20 20 20 21 23 27 27 29 30 31 33 34 34 35 35 33 30 28 25 21 19 17
2 3 3 4 4 9 5 4 1 3 11 4 7 8 19 17 16 14 17 18 22 21 21 20 19 20 25 26 28 28 35 36 34 33 31 30 28 27 25 24 21 20 19 18
4 2 1 1 6 3 4 7 4 2 8 3 13 16 21 21 19 17 15 19 18 20 21 19 17 25 26 29 34 30 36 34 33 30 28 26 25 25 23 22 21 19 17 18
7 4 1 2 3 2 7 10 7 7 7 7 17 19 22 24 25 17 14 16 16 18 18 24 27 29 29 27 33 35 33 32 30 26 23 22 21 21 21 20 20 18 19 17
9 5 2 4 3 3 4 12 13 6 2 10 15 17 20 19 13 7 11 17 17 21 25 26 26 30 31 29 35 35 29 29 25 22 20 19 19 19 17 18 17 16 17 17
6 4 5 5 2 2 6 19 8 1 2 5 9 7 10 11 11 14 13 16 21 21 24 26 28 26 27 33 35 30 28 24 22 22 21 20 19 17 16 16 15 15 15 14
5 4 3 3 2 2 15 16 3 3 8 9 13 16 20 20 19 19 15 17 16 20 24 24 28 26 28 32 34 29 26 21 21 20 20 19 17 15 15 16 15 13 12 12
2 3 3 4 2 6 15 13 18 8 4 10 14 14 23 21 18 17 17 16 17 22 23 24 26 27 27 28 29 28 20 20 20 20 20 18 17 17 16 17 16 15 12 12
3 2 1 3 4 11 13 13 9 9 13 14 14 15 18 26 18 17 14 13 16 20 21 23 25 23 23 25 24 23 19 18 19 20 19 18 19 19 18 18 17 15 13 13
2 6 5 1 3 10 15 14 9 13 15 18 16 13 15 21 18 16 13 10 18 20 19 21 22 21 22 23 21 18 16 17 20 20 19 19 18 18 18 18 17 16 16 14
4 4 3 2 6 3 6 9 12 13 14 15 19 17 13 18 19 16 12 17 20 20 17 20 22 22 21 22 20 17 16 16 19 19 17 17 17 16 15 15 14 14 12 10
Wind_Direction
208 164 221 219 208 240 253 261 261 264 285 332 256 304 289 282 270 276 260 209 213 206 161 163 162 167 169 179 187 193 192 197 197 197 196 202 206 209 213 216 218 215 212 214
332 233 238 233 209 230 241 251 255 265 260 275 282 284 291 269 257 223 235 192 215 197 138 149 157 159 172 182 191 193 197 198 199 200 196 198 201 209 212 222 225 227 219 214
232 234 221 235 232 229 228 232 261 250 269 276 280 283 271 257 245 223 244 195 195 188 163 156 161 169 171 177 188 195 198 201 201 201 195 183 186 172 186 194 213 212 196 137
251 244 246 241 234 220 240 223 237 241 238 247 204 280 236 230 227 217 234 217 175 179 171 163 167 167 174 188 192 194 199 200 200 202 199 184 169 122 103 105 113 107 108 81
243 216 229 237 237 216 231 210 209 227 224 244 246 251 261 222 211 203 222 223 171 172 168 167 174 178 185 180 188 193 188 191 191 183 181 169 129 123 118 113 110 99 99 94
255 258 260 227 221 217 223 186 220 239 204 229 218 211 252 201 203 198 201 202 163 169 172 174 180 173 162 171 181 182 174 165 168 163 160 144 118 111 112 114 101 80 88 120
301 268 204 196 224 228 202 153 179 217 197 224 194 215 245 247 216 202 196 191 150 169 164 163 158 159 157 158 166 160 163 138 157 164 141 128 122 115 107 110 118 125 119 99
285 311 151 169 197 193 188 182 169 184 174 216 238 221 222 240 248 203 161 182 136 157 164 170 174 172 151 140 143 142 146 138 150 157 147 144 142 142 127 128 174 151 146 137
282 253 127 191 192 196 174 212 204 318 207 159 186 245 235 227 189 164 157 169 161 162 163 165 141 126 133 131 133 135 131 138 147 143 141 142 139 142 148 143 139 130 128 124
280 281 266 341 172 212 217 155 188 258 215 190 208 214 215 164 185 161 163 177 137 146 141 136 120 117 123 130 120 126 129 128 132 139 143 141 145 155 152 141 134 133 128 136
244 222 332 129 198 187 205 177 208 148 248 270 175 222 159 151 171 165 175 148 139 140 135 123 112 117 113 109 112 112 117 122 129 134 136 140 147 146 137 127 125 129 129 131
253 276 248 233 10 286 180 161 189 150 230 227 253 245 238 214 200 148 134 135 133 132 130 119 119 117 107 101 102 105 112 116 121 130 134 129 134 133 125 124 126 127 131 133
329 270 357 338 30 19 160 228 173 108 359 295 342 270 28 121 129 140 130 130 127 127 115 114 111 111 108 104 104 104 106 108 113 120 124 124 125 124 126 124 125 130 127 121
223 232 243 223 237 161 186 169 112 93 215 318 275 128 94 127 133 133 126 123 126 118 116 113 111 106 106 105 106 103 105 110 114 120 122 124 128 129 130 128 128 126 123 116
308 247 230 260 256 261 152 154 157 193 236 261 321 130 132 139 140 129 125 123 114 114 112 113 111 108 105 105 103 104 105 109 119 122 124 127 131 131 131 128 127 124 113 98
318 304 345 299 160 181 145 149 191 226 244 230 274 181 111 98 106 114 118 118 115 113 115 112 112 108 104 106 107 107 108 113 121 120 121 128 131 132 132 131 129 121 105 89
281 306 353 344 17 116 80 59 285 10 261 210 236 123 100 95 97 105 111 114 115 117 117 115 111 108 110 110 113 113 115 120 118 120 124 126 127 126 126 123 116 106 93 82
335 296 353 7 345 50 79 21 2 306 338 126 80 98 94 90 80 77 93 109 110 113 112 105 108 104 107 113 110 111 116 119 121 122 125 126 127 126 125 120 113 106 96 83
354 293 61 100 345 3 23 10 353 11 18 58 111 104 103 101 82 50 66 87 102 109 108 107 108 107 106 107 109 111 111 115 115 116 118 121 121 125 128 122 122 114 102 92
1 358 119 56 37 39 24 326 333 351 313 276 126 123 130 123 98 88 88 98 96 98 101 104 107 106 105 105 114 109 107 110 109 113 112 115 119 116 120 125 118 113 106 99
341 4 27 59 66 45 9 327 315 248 36 181 117 77 102 99 106 108 97 92 88 91 92 94 94 93 100 112 116 104 108 106 112 114 113 111 112 110 112 124 124 123 114 102
349 351 345 341 30 59 345 328 329 350 331 109 92 102 95 92 97 97 100 90 88 87 86 93 91 88 100 113 113 103 101 112 116 114 108 106 107 108 117 124 121 117 102 83
30 21 304 353 33 303 299 257 269 282 275 96 106 115 112 99 87 88 89 88 84 84 84 88 93 92 101 111 112 108 111 116 113 107 100 102 103 101 107 112 104 91 77 67
340 52 309 310 319 322 336 8 49 94 89 96 100 116 110 106 98 87 80 88 90 89 90 95 95 91 92 104 105 106 112 115 112 106 102 100 97 100 99 95 89 82 74 72
309 315 307 312 331 323 5 10 35 82 87 91 86 88 106 111 107 105 96 90 93 89 87 97 97 94 98 104 98 100 108 113 108 104 103 100 99 96 93 87 81 77 73 67
336 344 354 356 323 298 316 0 37 68 82 88 98 90 86 100 101 104 104 98 94 96 101 96 100 102 100 99 96 97 105 112 110 103 102 98 99 92 91 91 86 74 67 66